Погода в Сретенске

Погода в Сретенске : погода сейчас, прогноз погоды и архив. Всё, что Вы хотите узнать о погоде в Сретенске!

Хотите узнать прогноз погоды в Сретенске? Тогда Вам сюда: Погода в Сретенске

Поиск расширенной информации на нашем сайте:

Другие новости

Новости СМИ2

Главная страница сайта

Новости сайта

03.07.2017

Напоминаем, что на нашем специализированном сайте Метеоцентр.Азия вы можете получить высокодетализированные автоматические прогнозы погоды по пунктам России, СНГ и мира в авиационном формате (включающие направление и скорость ветра, видимость, явления погоды, количество и форму облачности, нижнюю и верхнюю границу облачности).


Погода в Сретенске - сегодня

Время (UTC), дата Ветер
(°,м/с) 
Видим.   Явления Облачность Т
(°С)
Тd
(°С)
f(%) Тe
(°С)
Pmin
(гПа)
dP
(гПа)
Po
(мм)
O2
(г/м3)
Тmin Tmax R s Состояние
почвы
15 19.11.17 240 (ЮЗ) 20000 м    ясно 
-26.3 -29.1 77 -31  1031.6  0.4  720  323           
18 19.11.17 240 (ЮЗ) 20000 м    1/0 верхняя 
[Ci sp]
-27.1 -29.9 77 -32  1032  0.2  720  324           
21 19.11.17 тихо ()   20000 м    3/0 верхняя 
[Ci sp]
-27.7 -30.8 75 -28  1030.2  -1.8  718  324           
00 20.11.17 тихо ()   20000 м    8/0 средняя, верхняя 
[Ac lent|Ci sp]
-27.9 -31 75 -28  1027.8  -2.3  717  323  -28.5      равномерный
сухой снег
100% 
03 20.11.17 260 (З) 20000 м    9/0 средняя, верхняя 
[Ac lent|Cs]
-25.2 -28.1 77 -26  1025.1  -3  715  319           
06 20.11.17 270 (З) 20000 м    10/0 средняя, верхняя 
[As trans|Cs]
-15.3 -20.5 64 -15  1017.6  -4.3  712  305           
09 20.11.17 240 (ЮЗ) 20000 м    10/0 средняя, верхняя 
[As op|Cs]
-15.4 -19.1 73 -18  1016.2  -1.3  711  305           
12 20.11.17 220 (ЮЗ) 20000 м    10/0 средняя, верхняя 
[As op|Cs]
-16.1 -19.1 78 -16  1015.5  -0.8  710  306    -14.4       
15 20.11.17 220 (ЮЗ) 20000 м    10/0 средняя 
[As op]
-16.6 -20.3 73 -20  1015  -0.6  710  306           
18 20.11.17 230 (ЮЗ) 20000 м    4/0 средняя, верхняя 
[Ac As|Ci sp]
-15.8 -19.5 73 -21  1014.3  -0.4  710  305           
21 20.11.17 210 (ЮЗ) 20000 м  {снег}  3/0 средняя, верхняя 
[As op|Ci sp]
-15.4 -17.3 85 -18  1013.7  -0.5  709  304           
00 21.11.17 250 (З) 20000 м  {снег}  3/0 верхняя 
[Ci sp]
-16.9 -18.9 84 -19  1014.7  0.6  710  306  -17.4    0.0  равномерный
сухой снег
100% 
03 21.11.17 210 (ЮЗ) 20000 м    6/0 средняя, верхняя 
[Ac trans|Ci fib]
-13.9 -16.6 80 -16  1014.2  0.2  710  303  -19.5         
06 21.11.17 260 (З) 20000 м    9/3 1000 м кучево-дожд., средняя, верхняя 
[Cb cap|Ac trans|Ci fib]
-7.9 -13.2 66 -12  1012.3  -0.3  710  296           
09 21.11.17 240 (ЮЗ) 20000 м    9/4 1000 м кучево-дожд., средняя 
[Cb cap|Ac trans]
-8.5 -13.3 68 -11  1013.5  0.9  710  297           
12 21.11.17 220 (ЮЗ) 20000 м    8/0 средняя 
[Ac As]
-10.7 -16 65 -13  1015.3  1.2  711  300    -7.8       
15 21.11.17 110 (В) 20000 м    10/0 средняя 
[Ac As]
-11.5 -16.5 66 -11  1016.1  0.5  712  301           
18 21.11.17 210 (ЮЗ) 20000 м    10/0 средняя 
[As op]
-13 -17.2 71 -17  1017.3  0.7  712  303           
21 21.11.17 220 (ЮЗ) 20000 м    6/0 верхняя 
[Ci sp]
-15.2 -19.3 71 -20  1018.3  0.4  713  305           
00 22.11.17 220 (ЮЗ) 20000 м    8/4 1000 м средняя 
[Sc|Ac As]
-17 -20.5 74 -21  1019.7  0.8  713  308  -17.2      равномерный
сухой снег
100% 
03 22.11.17 240 (ЮЗ) 20000 м    3/1 1000 м средняя 
[Sc|Ac trans]
-15.4 -20.1 67 -21  1018.9  -0.3  713  306  -17.8         
06 22.11.17 290 (З) 6{10}  20000 м    ясно 
-13.7 -25.9 35 -20  1017.7  -0.7  712  304           
09 22.11.17 250 (З) 20000 м    3/0 верхняя 
[Ci sp]
-16.6 -26.3 43 -17  1019.3  0.8  713  307           
12 22.11.17 240 (ЮЗ) 20000 м    3/0 верхняя 
[Ci sp]
-18 -26.2 49 -21  1020.2  0.5  713  309    -13.6       
15 22.11.17 230 (ЮЗ) 20000 м    3/0 верхняя 
[Ci sp]
-23.7 -27.2 73 -24  1022.7  0.8  714  317           
Время (UTC), дата Ветер
(°,м/с) 
Видим.   Явления Облачность Т
(°С)
Тd
(°С)
f(%) Тe
(°С)
Pmin
(гПа)
dP
(гПа)
Po
(мм)
O2
(г/м3)
Тmin Tmax R s Состояние
почвы

Для получения пояснительной информации подведите курсор к названию столбца.

ПОГОДА в Сретенске - архив

Всё, что Вы хотите узнать о погоде в Сретенске - удобно и подробно!

Выберите нужную дату (начиная с 1 января 2015* года) и нажмите кнопку "Найти".
Будут отображены архивные сводки погоды по пункту Сретенск, начиная с указанной даты.


Отображать данные в формате CSV (для использования в таблицах Excel)


Внимание! Наш архив погоды предназначен исключительно для личного некоммерческого использования в познавательных целях. Если Вам необходимы официальные справки о состоянии погоды (для производственных, юридических, коммерческих и т.п. целей), обращайтесь в органы Росгидромета.

*Примечание: данная дата относится к архиву по метеостанциям СССР (Россия, СНГ, Балтия).
Архив по метеостанциям Зарубежной Европы и Азии (кроме Китая) хранится 10 дней, по другим регионам земного шара (Китай, Африка, Америка, Австралия, Океания) - 1 день.

Сретенск - район местоположения метеостанции


Название, широта, долгота, высота метеостанции:
Сретенск 52.2°ш. 117.7°д. 525 м над ур. моря [Российская Федерация]

Дополнительная информация

В oтличие oт бoльшинства пoгoдных сайтoв мы публикуем пoдрoбную метеoинфoрмацию в детальнoм прoфессиoнальнoм фoрмате.

Характеристики температуры и влажнoсти вoздуха измеряются на высoте 2 м в тени вдали oт зданий и деревьев.
Скoрoсть ветра измеряется на высoте 10 м (на урoвне рoста челoвека скoрoсть ветра ниже в 1.5-2 раза). Если метеoстанция нахoдится в гoрoде или в лесу, тo скoрoсть ветра занижена на 2-4 м/с пo сравнению с oткрытым местoм. Скoрoсть ветра над акватoриями крупных рек и oзёр, а также на вершинах хoлмoв на 2-5 м/с выше, чем в oбычных услoвиях.
Атмoсфернoе давление в разных тoчках местнoсти мoжет значительнo oтличаться oт давления на метеoстанции, в зависимoсти oт услoвий рельефа (при пoдъёме на 10 м давление пoнижается примернo на 1 мм рт.ст.).